Location: Borz?cin
(51.1714°N, 19.6030°E)
Time: 07:54:07
(UTC+00:00)

Cosmos 2322 Rocket - Pass Details

Date: 19 May 2025
Orbit: 832 x 849 km, 71.0° (Epoch: 16 June)

Event Time Altitude Azimuth Distance (km) Brightness Sun altitude
Rises 21:06:02 0° 331° (NNW) 3,419 7.2 -16.0°
Reaches altitude 10° 21:08:41 10° 340° (NNW) 2,478 6.0 -16.2°
Maximum altitude 21:13:58 38° 48° (NE) 1,270 3.3 -16.5°
Enters shadow 21:18:29 14° 112° (ESE) 2,212 4.0 -16.7°
